This demonstration page uses our WeatherBlox Daily Observations layout. Learn more.

Left ArrowRight Arrow

39.08367, -84.50855

Hourly Observations for August 20, 2020

Temp ( °F °C ) Dew Point ( °F °C ) Humidity (%) Winds ( mph kmh ) Pressure ( in mb ) Visibility ( mi km ) Precip ( " mm )
12:53 am 00:53 Clear 58 14.4 57 13.9 97 97 N N/A 30.05 1018 10 16 N/A
1:53 am 01:53 Clear 59 15 57 13.9 93 93 N N/A 30.06 1018 10 16 N/A
2:53 am 02:53 Clear 57 13.9 56 13.3 96 96 N N/A 30.05 1018 10 16 N/A
3:46 am 03:46 Clear with Mist and Fog 56 13.3 56 13.3 100 100 N N/A 30.06 1018 3 4 N/A
3:53 am 03:53 Clear with Mist and Fog 57 13.9 56 13.3 96 96 N N/A 30.05 1018 3 5 N/A
4:18 am 04:18 Clear with Mist and Fog 55 12.8 54 12.2 96 96 N N/A 30.06 1018 2 3 N/A
4:26 am 04:26 Clear with Mist and Fog 56 13.3 55 12.8 97 97 N N/A 30.06 1018 4 6 N/A
4:53 am 04:53 Clear 55 12.8 54 12.2 96 96 N N/A 30.04 1017 9 14 N/A
5:14 am 05:14 Clear with Mist and Fog 55 12.8 54 12.2 96 96 N N/A 30.05 1018 2 3 N/A
5:37 am 05:37 Clear with Mist and Fog 55 12.8 54 12.2 96 96 N N/A 30.05 1018 3 5 N/A
5:53 am 05:53 Clear with Mist and Fog 55 12.8 54 12.2 96 96 N N/A 30.05 1018 4 6 N/A
5:59 am 05:59 Clear with Mist and Fog 55 12.8 54 12.2 96 96 N N/A 30.06 1018 2 3 N/A
6:10 am 06:10 Clear with Fog 55 12.8 54 12.2 96 96 N N/A 30.05 1018 1 1 N/A
6:25 am 06:25 Clear with Mist and Fog 54 12.2 53 11.7 97 97 N N/A 30.06 1018 2 3 N/A
6:32 am 06:32 Clear 55 12.8 53 11.7 93 93 N N/A 30.06 1018 10 16 N/A
6:44 am 06:44 Mostly Clear with Mist and Fog 54 12.2 53 11.7 97 97 N N/A 30.06 1018 1 2 N/A
6:46 am 06:46 Mostly Cloudy with Mist and Fog 54 12.2 54 12.2 100 100 N N/A 30.06 1018 1 1 N/A
6:53 am 06:53 Clear with Fog 53 11.7 53 11.7 100 100 N N/A 30.05 1018 10 16 N/A
7:53 am 07:53 Sunny 57 13.9 55 12.8 93 93 N N/A 30.05 1018 10 16 N/A
8:53 am 08:53 Sunny 63 17.2 57 13.9 81 81 NNE 3 6 30.06 1018 10 16 N/A
10:53 am 10:53 Sunny 73 22.8 56 13.3 55 55 ENE 6 9 30.06 1018 10 16 N/A
11:53 am 11:53 Sunny 77 25 56 13.3 48 48 NE 6 9 30.06 1018 10 16 N/A
12:53 pm 12:53 Sunny 78 25.6 56 13.3 47 47 NE 6 9 30.04 1017 10 16 N/A
1:53 pm 13:53 Sunny 78 25.6 55 12.8 45 45 ENE 6 9 30.01 1016 10 16 N/A
2:53 pm 14:53 Sunny 80 26.7 55 12.8 42 42 ENE 8 13 29.99 1016 10 16 N/A
3:53 pm 15:53 Sunny 81 27.2 56 13.3 42 42 NE 12 19 29.97 1015 10 16 N/A
4:53 pm 16:53 Sunny 81 27.2 57 13.9 44 44 NNE 5 7 29.95 1014 10 16 N/A
5:53 pm 17:53 Sunny 80 26.7 56 13.3 44 44 VRB 3 6 29.93 1014 10 16 N/A
6:53 pm 18:53 Sunny 80 26.7 56 13.3 44 44 E 8 13 29.93 1014 10 16 N/A
7:53 pm 19:53 Sunny 76 24.4 60 15.6 58 58 NE 3 6 29.94 1014 10 16 N/A
8:53 pm 20:53 Clear 69 20.6 62 16.7 78 78 N N/A 29.95 1014 10 16 N/A
9:53 pm 21:53 Clear 65 18.3 61 16.1 87 87 N N/A 29.96 1015 10 16 N/A
10:53 pm 22:53 Clear 63 17.2 60 15.6 90 90 N N/A 29.97 1015 10 16 N/A
11:53 pm 23:53 Clear 63 17.2 61 16.1 93 93 N N/A 29.96 1015 10 16 N/A

Powered by AerisWeather